Theta_e
348 347 348 348 348 348 348 348 346 343 345 344 341 342 343 345 346 346 346 352 356 357 356 356 355 352 353 353 350 347 346 344 343 341 343 342 340 339 339 338 336 337 338
349 348 348 348 349 349 349 349 348 345 344 345 344 343 344 346 347 350 350 352 354 355 357 358 357 356 356 354 353 353 352 350 346 345 341 342 342 342 339 338 339 341 339
349 349 349 349 349 349 349 349 349 347 344 345 345 344 342 344 349 352 351 352 354 355 356 357 357 358 358 356 355 353 352 352 350 348 347 346 346 344 343 342 340 340 339
349 349 350 350 350 349 349 349 350 348 346 345 345 345 343 344 348 350 352 354 355 356 357 357 357 358 358 358 357 357 356 354 352 352 349 348 349 348 347 345 344 344 344
349 349 350 350 350 350 350 350 350 350 348 346 346 346 347 348 347 350 351 354 356 356 355 356 356 356 353 354 356 356 356 356 354 351 350 349 348 348 348 347 347 348 347
350 350 350 351 351 351 350 351 350 350 349 349 350 349 351 350 347 345 344 351 354 356 356 357 356 354 353 352 352 352 353 357 357 356 354 353 355 354 353 352 352 351 352
350 351 351 352 352 351 351 351 352 352 352 351 351 351 350 350 347 346 343 345 349 351 352 352 353 352 353 354 356 353 353 353 352 353 356 357 357 356 356 356 356 356 355
350 350 351 352 352 352 352 351 351 352 352 353 354 354 353 352 348 346 346 346 349 350 351 351 351 350 351 352 354 355 355 355 354 352 352 353 355 356 357 357 357 355 352
351 351 351 352 352 353 353 353 352 352 352 351 352 352 353 352 350 347 348 349 350 352 352 352 352 353 352 351 353 353 354 355 355 356 356 355 355 356 356 354 351 350 350
352 352 351 351 352 353 354 354 354 354 354 354 354 353 353 351 350 348 348 350 351 352 353 354 353 352 353 352 352 354 356 357 358 359 360 359 359 358 357 357 356 349 350
352 352 352 352 353 353 353 354 355 355 355 356 356 356 356 355 353 351 351 351 353 354 355 355 356 355 354 353 353 354 357 358 360 360 360 359 359 358 359 358 357 355 351
353 353 354 354 353 354 355 355 355 356 357 357 358 358 358 359 357 356 355 355 354 356 358 359 360 358 357 358 357 357 357 357 357 358 357 357 356 357 357 356 355 352 348
353 354 355 355 355 355 357 357 358 358 357 358 359 359 359 360 362 361 359 359 359 357 359 361 361 360 359 359 360 360 360 358 355 352 353 356 356 355 355 352 349 345 344
352 353 355 356 356 356 357 357 357 358 359 359 360 360 360 361 362 363 361 360 360 360 360 358 358 358 359 359 360 360 360 360 358 355 355 355 354 353 350 347 347 346 342
353 352 352 353 355 357 357 357 358 358 359 359 360 361 361 362 362 362 363 363 360 358 359 355 354 355 355 355 357 359 359 361 360 359 354 352 351 349 345 344 342 339 341
352 357 357 358 357 355 355 354 355 357 358 359 359 360 361 361 361 360 359 360 360 361 359 358 356 356 357 358 357 356 355 355 356 355 353 352 350 345 341 339 341 340 339
333 343 351 354 358 358 358 357 357 352 354 355 356 357 358 359 360 360 361 361 361 361 358 358 359 360 359 357 357 356 355 355 352 351 351 348 344 343 338 340 338 338 338
325 328 344 350 353 357 356 356 356 357 358 357 355 357 358 358 359 360 361 362 360 358 356 357 360 359 360 357 357 355 354 352 350 348 345 344 341 339 336 337 336 335 337
323 323 330 340 348 351 354 356 355 354 355 357 351 354 356 355 357 360 360 361 361 361 358 357 358 357 355 354 351 351 349 348 345 341 339 340 337 337 337 336 335 334 334
323 323 324 330 341 348 351 353 353 354 355 356 357 355 350 349 349 354 357 359 358 361 361 358 353 353 350 348 347 345 343 341 341 340 337 339 339 338 337 335 334 334 332
322 324 324 326 332 341 348 350 351 352 352 354 354 353 348 348 351 350 350 350 355 356 352 351 350 348 346 345 343 340 339 338 335 335 336 337 337 336 335 333 332 333 332
321 323 325 326 329 335 342 347 350 350 349 349 352 350 344 344 352 352 351 350 348 346 345 347 343 339 338 336 336 335 336 336 334 333 333 334 334 333 332 332 332 332 333
321 324 327 327 329 334 337 339 345 349 348 347 347 347 338 341 348 348 346 343 339 336 337 338 338 337 336 336 336 336 335 335 334 333 333 333 332 332 332 331 332 333 333
319 323 327 330 330 332 333 336 343 337 341 339 338 337 336 337 335 330 328 326 324 323 324 326 326 327 331 332 332 332 332 332 333 333 333 331 332 330 331 331 333 333 333
310 310 312 313 317 322 325 324 321 320 320 319 319 319 322 323 322 320 319 318 318 319 317 314 313 314 323 327 330 331 332 332 331 331 330 332 332 330 330 331 333 333 333
303 303 303 303 302 303 304 305 304 305 305 304 305 307 308 307 309 309 309 309 307 307 305 304 305 306 309 311 314 319 326 329 330 331 331 331 331 333 333 333 333 333 332
Wind_Speed
37 38 36 34 34 32 30 30 32 31 26 23 22 23 22 22 20 19 20 18 16 16 15 14 14 14 13 11 10 11 11 11 15 18 14 13 19 19 16 19 18 20 22
38 36 36 35 33 30 32 29 29 31 30 27 25 25 24 21 19 19 18 17 18 19 19 16 16 13 15 16 15 15 14 13 15 20 21 20 21 19 23 23 24 20 23
38 36 35 35 33 34 34 31 27 31 33 30 28 26 27 25 22 19 19 19 19 19 20 19 19 17 18 17 16 16 16 16 17 19 24 21 22 19 20 22 24 25 28
38 37 36 35 36 36 35 31 28 32 33 32 32 31 29 27 25 23 21 21 21 20 20 19 20 20 21 21 19 19 17 18 20 22 25 26 23 22 20 22 21 21 24
36 36 36 36 37 35 30 30 29 29 31 33 33 32 30 27 28 27 26 23 22 22 22 22 23 24 26 26 22 21 19 19 20 21 23 23 23 21 23 24 24 25 27
37 37 36 34 33 33 33 31 30 31 30 31 29 30 28 28 31 35 33 26 25 23 23 24 25 28 30 31 31 31 30 26 24 25 27 26 24 23 24 24 25 25 26
36 35 34 34 33 33 33 31 32 32 28 30 28 28 30 32 37 39 39 36 30 30 30 29 29 28 29 28 29 33 35 37 38 38 34 31 30 27 27 28 28 26 29
35 35 34 34 34 31 30 31 31 28 30 28 27 28 27 31 37 39 39 38 34 35 33 32 32 33 31 30 28 28 31 30 30 32 34 37 32 28 28 30 30 27 30
35 35 35 34 31 30 30 30 28 26 26 28 29 30 30 32 35 37 35 30 32 35 34 34 34 33 33 33 32 31 33 32 29 31 33 34 33 31 30 30 29 23 21
36 36 32 32 31 31 30 31 30 29 28 26 27 29 31 33 35 37 35 28 29 30 30 33 37 39 34 34 34 30 33 31 26 26 26 24 22 23 24 23 26 20 19
29 29 30 33 34 33 32 29 28 28 25 26 26 26 26 28 31 35 34 33 30 28 29 28 27 30 33 37 38 35 34 29 26 26 24 22 23 25 23 24 26 22 21
26 28 29 30 30 27 28 25 26 25 25 24 24 23 23 24 29 30 32 34 34 30 27 24 23 25 29 28 28 34 34 34 30 25 23 20 22 21 22 20 14 16 19
27 27 27 26 27 25 26 24 23 24 23 22 22 22 21 20 23 28 32 31 32 37 28 25 24 24 26 24 25 27 27 32 34 27 23 25 23 20 16 16 16 14 12
21 21 21 24 25 25 23 24 24 23 23 22 21 20 20 20 20 20 22 31 33 33 36 33 27 24 26 28 27 27 28 31 33 28 26 23 18 15 14 12 8 10 8
10 12 13 15 20 19 21 20 22 23 24 23 22 21 20 20 21 21 19 17 18 22 25 21 22 24 26 27 30 32 33 32 32 31 27 21 18 16 8 9 8 7 7
13 10 11 7 9 15 16 16 22 21 23 26 23 20 18 21 18 19 18 20 22 19 18 15 18 20 22 22 22 24 25 26 27 25 22 17 15 10 8 6 8 8 7
12 9 2 16 7 8 10 10 11 16 25 24 26 27 27 21 19 22 18 16 21 24 23 18 19 18 21 23 21 20 21 19 16 16 15 13 10 8 8 9 8 7 7
14 12 10 17 6 11 6 11 5 8 7 7 14 21 26 30 28 24 21 20 19 22 23 22 21 20 19 18 19 18 16 14 14 13 11 10 10 10 10 8 8 10 10
10 10 8 4 7 6 7 7 10 10 9 9 9 11 16 17 21 26 26 22 18 18 19 22 21 14 15 15 12 14 12 11 11 12 11 11 11 12 10 9 10 11 10
8 7 6 8 9 6 7 8 7 6 6 7 8 9 11 12 11 18 24 27 20 18 16 14 13 15 13 12 12 12 10 11 11 11 12 12 13 12 10 10 11 11 12
14 13 13 11 9 10 8 8 6 4 5 7 6 9 15 13 11 13 18 19 20 18 14 14 14 14 14 14 14 13 11 10 11 12 12 13 13 13 11 11 12 11 11
13 13 13 12 11 11 12 12 11 9 6 7 5 6 12 14 13 13 15 15 15 14 16 20 18 14 12 12 11 11 11 12 12 12 13 13 13 12 12 13 14 15 14
12 11 13 14 14 13 15 15 16 13 9 6 6 5 6 11 13 13 11 10 9 8 7 8 10 11 11 11 11 10 11 11 10 10 12 13 14 14 15 15 16 17 17
12 11 10 13 15 14 14 15 11 7 7 3 2 2 1 3 4 5 3 2 3 4 3 3 4 6 10 11 12 13 13 12 7 9 11 12 13 15 15 16 17 18 17
9 9 9 9 9 8 4 1 1 1 1 2 4 5 7 9 9 9 8 6 6 6 5 4 3 2 3 6 9 11 13 13 14 13 12 11 13 14 16 16 17 16 18
23 21 20 18 15 12 10 9 8 9 9 10 10 10 11 11 13 12 11 12 11 12 10 10 8 6 5 3 0 5 11 14 15 15 14 15 14 16 17 16 15 16 17
Wind_Direction
203 207 211 216 217 218 220 226 230 234 234 232 229 229 233 239 240 240 244 243 242 247 248 248 254 257 258 258 253 250 250 250 268 284 278 287 291 292 288 292 288 276 271
203 204 207 212 213 213 218 222 226 229 231 232 231 228 230 236 238 238 242 242 241 245 248 248 250 249 254 259 255 254 256 253 261 277 282 281 281 284 284 282 280 273 273
199 203 206 208 211 212 218 219 220 226 230 228 230 230 230 234 236 238 240 243 243 244 248 250 255 254 252 254 253 259 263 265 261 268 279 280 280 283 281 282 278 275 270
197 201 203 205 208 213 216 215 216 225 228 227 229 232 230 232 236 239 240 241 243 245 249 250 253 255 255 255 256 257 261 260 262 264 272 278 278 281 280 280 283 278 275
195 196 201 205 208 211 211 211 215 220 227 231 230 230 230 230 235 236 235 236 240 245 250 254 257 259 262 261 255 259 257 260 265 268 270 274 274 277 275 288 288 288 285
193 196 198 201 205 205 207 209 211 220 225 227 224 228 227 228 234 235 237 235 240 243 247 251 257 264 267 268 268 267 257 253 260 268 273 275 276 276 282 283 285 292 293
191 195 195 197 200 204 206 203 208 213 218 223 224 226 229 233 237 241 242 242 241 245 247 250 255 257 263 261 265 270 270 268 265 262 267 267 275 277 282 281 280 275 275
190 193 193 195 198 200 202 204 208 211 213 217 223 226 230 237 243 246 246 246 245 246 247 248 251 253 252 255 260 263 264 266 268 268 263 269 270 274 272 275 280 281 277
192 194 193 194 195 197 201 204 207 207 214 220 225 227 229 237 242 247 245 237 241 245 246 246 246 249 252 254 255 260 265 265 269 272 275 277 281 283 280 279 282 285 285
192 193 190 190 194 197 200 202 205 210 216 220 225 227 229 236 243 247 244 233 238 243 247 247 247 247 249 252 252 253 260 265 268 271 272 277 288 289 290 279 280 263 275
188 188 187 191 194 199 201 203 204 208 215 218 224 228 230 234 238 246 246 233 234 240 243 246 248 250 254 253 255 249 252 264 269 270 269 270 271 281 276 283 293 287 272
181 184 188 190 195 203 201 202 206 208 215 220 225 232 235 236 241 243 246 241 235 233 240 245 248 247 253 261 259 257 262 265 265 267 268 268 266 264 275 284 274 279 291
181 188 191 193 198 199 199 200 204 208 215 220 223 230 232 233 235 242 243 246 242 237 242 248 250 250 255 262 260 260 260 260 262 259 259 263 266 275 269 274 288 291 293
189 192 191 192 195 198 201 203 206 207 212 217 218 224 229 231 231 234 240 240 243 245 246 245 248 248 249 255 257 258 256 256 257 255 261 264 262 261 265 282 281 288 279
174 188 193 200 198 202 206 207 210 213 213 214 219 220 224 227 229 228 226 228 230 238 243 240 240 245 248 251 253 254 253 254 252 257 255 253 264 265 245 263 270 247 245
76 103 104 109 190 203 207 222 220 217 219 220 224 225 232 236 238 248 252 249 246 245 234 225 228 232 237 239 236 244 249 246 252 250 249 246 249 240 247 236 227 227 243
30 35 131 96 359 243 150 228 217 240 234 232 233 237 239 238 241 244 249 245 241 244 236 236 236 236 238 240 239 235 239 247 237 227 229 228 226 230 223 225 226 231 231
5 6 32 61 198 264 239 229 211 237 242 243 254 249 249 248 245 242 241 239 235 235 237 239 242 245 241 237 242 238 234 230 218 214 211 213 215 210 200 214 226 219 208
7 350 356 272 245 244 223 211 211 212 216 229 238 247 245 248 243 237 234 234 231 230 233 240 243 235 241 243 233 231 223 212 208 212 209 205 199 190 201 217 218 212 203
339 322 316 279 269 251 223 218 217 227 232 232 240 246 240 234 229 224 225 228 230 237 236 237 235 238 235 230 224 217 201 206 209 208 201 210 210 209 214 214 205 205 204
327 326 322 309 289 278 273 265 248 237 260 253 246 250 242 226 232 227 222 219 221 222 220 223 227 228 227 226 219 208 201 205 203 204 210 211 213 207 210 210 208 208 197
314 310 305 299 297 287 283 282 275 259 250 265 258 254 262 245 248 240 229 222 227 230 216 216 213 207 203 202 203 203 206 212 211 210 210 203 203 202 206 207 206 205 196
305 302 298 291 284 278 280 276 269 260 250 249 260 242 235 234 245 245 232 214 203 196 201 207 203 193 191 191 200 208 211 210 211 210 204 206 206 209 210 209 209 205 205
315 315 306 289 276 272 267 270 269 277 275 259 190 142 165 191 153 127 113 146 164 171 155 154 179 189 198 199 203 205 205 203 202 213 208 205 206 211 211 213 214 215 214
6 10 13 5 12 16 356 325 68 93 88 105 117 129 152 162 155 155 154 145 138 126 112 94 70 93 182 201 210 224 230 232 228 221 215 221 217 218 212 215 225 222 218
45 43 43 46 36 33 41 37 51 67 67 63 75 95 106 104 124 131 132 136 128 117 105 97 86 75 96 83 354 251 245 238 232 226 223 222 220 217 214 221 230 230 226